Delta Virtual Airport Information Service

Boston Logan International Airport

ICAO: KBOS Country: United States
Latitude: 42.363 Longitude: -71.0064
Latest Arrival : DAC6996 (EFRO-KBOS) Latest Departure : SWA116 (A) (KBOS-KDEN)


WX CaptureLIVE
Data provided by noaa.gov | Fetched at 03:47:28

METAR : KBOS 030854Z 27021G32KT 10SM FEW050 06/00 A2954 RMK AO2 PK WND 27032/0849 SLP002 T00610000 51015

TAF : KBOS 030904Z 0309/0412 27021G32KT P6SM FEW050 FM031100 29014G30KT P6SM SCT200 FM040000 28015G22KT P6SM SCT200 FM040500 28007KT P6SM FEW200


Runway Data for KBOS
Data provided by openaviationdata.com

Runway ID Mag Var Hdg Length Elevation Surface ILS Freq ILS Id ILS Slope
04L -15 35° 7475 ft 0 ft Bituminous -- -- --
04R -15 35° 7513 ft 0 ft Bituminous 110.3 IBOS 3
9 -15 92° 6761 ft 0 ft Bituminous -- -- --
14 -15 140° 5033 ft 0 ft Asphalt -- -- --
15L -15 151° 2555 ft 0 ft Asphalt -- -- --
15R -15 151° 9857 ft 0 ft Bituminous 110.7 IMDC 3
22L -15 215° 7513 ft 0 ft Bituminous 110.3 ILQN 3
22R -15 215° 7475 ft 0 ft Bituminous -- -- --
27 -15 272° 6761 ft 0 ft Bituminous 111.3 IDGU 3
32 -15 320° 5033 ft 0 ft Asphalt -- -- --
33L -15 331° 9857 ft 0 ft Bituminous 110.7 ILIP 3
33R -15 331° 2555 ft 0 ft Asphalt -- -- --

Boston Logan International Airport, United States
Use only for reference purposes



Not for navigational purposes.